map of BSB home
Great Circle Mapper logo
BSB - Airport
Location
City:  Brasília, Distrito Federal, Brazil
Name:Presidente Juscelino Kubitschek International Airport
ICAO / IATA:SBBR / BSB

Details
Type:Airport (Aerodrome, Airfield)
Use:Public/Civil, Military, International (customs port of entry)
Latitude:15°52'16"S (-15.871099)
Longitude:47°55'07"W (-47.918624)
Datum:WGS 1984
Elevation:3479 ft (1060 m)
Runways:2
Longest:10827 × 148 ft (3300 × 45 m), paved

Time
Time Zone:UTC-3 (DST-2)
Local Time:

Weather
METAR:SBBR 230200Z 20006KT 9999 VCTS FEW030 FEW035CB 24/15 Q1020

Related Locations
Nearby:
Farthest:RPVW: 11914 mi / 19174 km
Borongan, Samar Island, PH

Find:

   beyond  
but within

Other Information
Maps:
NOTAMs:
Links:
Sources:

  
flag of Brazil
flag of Distrito Federal
  

Airport Diagram

Airport diagram for BSB

Airport diagram (OBSOLETE) from NGA

Sectional Chart

Flight Planning
at skyvector.com

Satellite Image

Google Maps Satellite View

 

Copyright © 2004-2014 Karl L. Swartz. All rights reserved.
The Great Circle Mapper name and logo are trademarks of the Great Circle Mapper.
All other trademarks mentioned herein belong to their respective owners.
Please see credits for attibutions and further copyright information.

  Follow gcmap on Facebook Follow gcmap on Twitter

hCard Microformat

Geo Microformat